Погода в Дружине

Россия / Республика Марий Эл     56°32′08″N   49°56′53″E
темп.,
°C
ветер,
м/с
пор.,
м/с
влажн.,
%
обл.,
%
осадки,
мм/ч
давл.,
гПа
погр.,
м
16 мая, вс
вс1600:00+17ю410635 0.0 1016148
03:00+16ю49648 0.0 1017131
06:00+18ю512638 0.0 1017298
09:00+24ююз710479 0.0 1016522
12:00+26ююз81140100 0.0 10161016
15:00+27ююз61244100 0.0 10151520
18:00+24юз485770 0.0 1015201
21:00+19юз46685 0.0 101587
17 мая, пн
пн1700:00+17зюз348246 0.0 101658
03:00+16з229140 0.0 101727
06:00+18сз1283100 0.7 1018142
09:00+23зюз245721 0.7 1018829
12:00+26зюз46479 0.0 10181514
15:00+27з463910 0.0 10172134
18:00+24с23595 0.0 101778
21:00+19с12686 0.0 101911
18 мая, вт
вт1800:00+17всв127640 0.3 101911
03:00+16в2376100 0.3 101920
06:00+18вюв3472100 0.1 1020150
09:00+24вюв335638 0.3 1019524
12:00+27юв334791 0.0 10191168
15:00+28юв223816 0.0 10182052
18:00+26ююв115170 0.0 101814
21:00+19в356897 0.1 101869
19 мая, ср
ср1900:00+16юв3878100 0.6 1019135
03:00+15вюв4884100 0.6 1020129
06:00+17вюв51178100 0.0 1020324
09:00+22юв6859100 0.0 1019589
12:00+25юв785041 0.0 10191263
15:00+25юв79485 0.0 10181629
18:00+23юв611585 0.0 1017430
21:00+19юв515646 0.0 1017329
20 мая, чт
чт2000:00+18ююв51464100 0.0 1016311
03:00+16ююв414770 0.1 1016301
06:00+19ю715705 0.0 1016517
09:00+22ююв8135699 0.1 1015684
12:00+25ю101454100 0.0 10141201
15:00+24ю10176144 1.0 10131877
18:00+17юз101785100 6.9 1014678
21:00+14юз349066 6.9 101773